Weather in Sugonovo

Russia / Kaluga Oblast     54°40′50″N   36°41′09″E
temp.,
°C
wind,
m/s
gust,
m/s
humid.,
%
clouds,
%
prec.,
mm/h
press.,
hPa
HPBL,
m
16 may, sun
sun1600:00+12ssw411950 0.0 1010325
03:00+10ssw389812 0.0 1012188
06:00+11ssw27964 0.0 1012189
09:00+17ssw36785 0.0 1013545
12:00+20ssw47605 0.3 10131449
15:00+20sw46642 1.6 10131308
18:00+20sw25686 0.3 1013663
21:00+14s2284100 0.3 101311
17 may, mon
mon1700:00+13se2291100 0.0 101416
03:00+12ese229299 0.0 101430
06:00+13e37897 0.0 1014174
09:00+18e497944 0.4 1013429
12:00+23e69627 0.0 10121047
15:00+25ese68585 0.0 10101318
18:00+23ese5106849 0.0 1009836
21:00+19ese51578100 0.0 1009591
18 may, tue
tue1800:00+17se515826 0.0 1009474
03:00+15ese412854 0.0 1008307
06:00+15se41282100 0.0 1008333
09:00+20se51167100 0.0 1008549
12:00+21sse4106797 0.0 1008799
15:00+25se595296 0.0 10081340
18:00+23se496180 0.0 10071009
21:00+19ese5147636 0.0 1006591
19 may, wed
wed1900:00+17ese31187100 0.1 1006298
03:00+15ese2795100 0.4 1006154
06:00+15ese4128871 0.2 1006375
09:00+19sse5107563 0.3 1006835
12:00+22sse51358100 0.2 10061502
15:00+21sse61065100 0.7 10071566
18:00+18sse4781100 1.1 1006808
21:00+15sse249554 2.2 100585
20 may, thu
thu2000:00+14s2498100 2.0 1005155
03:00+12sse38975 2.1 1005270
06:00+12sse3896100 0.0 1006362
09:00+14s5886100 0.3 1006781
12:00+16ssw686967 0.7 10071229
15:00+17ssw586593 1.0 10081459
18:00+15sw697945 0.5 1010985
21:00+12sw4108610 0.5 1011543